User: anonymous   Login
Location: Caltech
(34.1382°N, 118.1253°W)
Time: 11:46:32
(UTC-08:00)
Language:

ASTRO E2 - Orbit

View from above orbital plane
View from above orbital plane
View from above satellite
View from above satellite

Ground track
Ground track

The orbit data is extracted from the following two-line orbital elements,

1 28773U 05025A   18022.89723158  .00000889  00000-0  40356-4 0  9992
2 28773  31.3835 311.0954 0004452  32.5118 327.5802 15.16324652690726
Epoch (UTC): 22 January 2018 21:32:00
Eccentricity: 0.0004452
inclination: 31.3835°
perigee height: 514 km
apogee height: 520 km
right ascension of ascending node: 311.0954°
argument of perigee: 32.5118°
revolutions per day: 15.16324652
mean anomaly at epoch: 327.5802°
orbit number at epoch: 69072

The dashed part of the orbit path shows where the satellite is in the earth's shadow,  

DLR